CW0880 Weather Reports


time (UTC)temp
C
wind
direction
speed
KPH
gust
KPH
rain 1hr
cm
rain 24hr
cm
rain mn
cm
humidity
%
barometer
mb
20260506162208 18 241 8.0 16.1 0.00 0.00 0.00 75 1009.1
20260506160706 20 253 9.7 17.7 0.00 0.00 0.00 65 1009.0
20260506155204 20 230 11.3 20.9 0.00 0.00 0.00 63 1009.3
20260506153305 20 232 4.8 16.1 0.00 0.00 0.00 66 1008.9
20260506151804 19 198 6.4 16.1 0.00 0.00 0.00 69 1009.4
20260506150304 18 176 3.2 4.8 0.00 0.00 0.00 70 1009.4
20260506144757 17 172 6.4 8.0 0.00 0.00 0.00 72 1009.5
20260506143254 16 155 6.4 9.7 0.00 0.00 0.00 74 1009.4
20260506141754 16 100 3.2 11.3 0.00 0.00 0.00 75 1009.2
20260506140251 16 151 8.0 9.7 0.00 0.00 0.00 75 1009.3
20260506134747 17 108 6.4 11.3 0.00 0.00 0.00 73 1009.5
20260506133243 17 110 8.0 9.7 0.00 0.00 0.00 71 1009.5
20260506131741 17 135 6.4 8.0 0.00 0.00 0.00 71 1009.7
20260506130237 17 158 3.2 8.0 0.00 0.00 0.00 74 1009.4
20260506124736 18 195 8.0 12.9 0.00 0.00 0.00 72 1009.6
20260506123235 18 207 9.7 12.9 0.00 0.00 0.00 72 1009.6
20260506121733 18 197 16.1 22.5 0.00 0.00 0.00 71 1009.4
20260506120230 18 202 14.5 19.3 0.00 0.00 0.00 72 1009.8
20260506114729 18 209 6.4 9.7 0.00 0.00 0.00 73 1009.9
20260506113228 17 181 4.8 12.9 0.00 0.00 0.00 75 1009.9
20260506111725 17 217 6.4 14.5 0.00 0.00 0.00 75 1009.8
20260506110223 17 230 9.7 14.5 0.00 0.00 0.00 77 1009.9
20260506104720 17 181 14.5 19.3 0.00 0.00 0.00 77 1010.0
20260506103217 17 188 6.4 9.7 0.00 0.00 0.00 79 1009.5
20260506101715 17 177 6.4 17.7 0.00 0.00 0.00 79 1009.7
20260506100214 17 248 3.2 17.7 0.00 0.00 0.00 79 1009.6
20260506094711 17 192 9.7 11.3 0.00 0.00 0.00 80 1009.4
20260506093210 17 174 8.0 11.3 0.00 0.00 0.00 79 1009.3
20260506091709 17 159 3.2 12.9 0.00 0.00 0.00 79 1009.6
20260506090206 16 205 4.8 6.4 0.00 0.00 0.00 81 1009.8
20260506084702 15 103 6.4 9.7 0.00 0.00 0.00 82 1009.9
20260506083159 16 133 4.8 14.5 0.00 0.00 0.00 81 1009.6
20260506081654 15 177 6.4 9.7 0.00 0.00 0.00 83 1009.7
20260506080151 15 138 4.8 8.0 0.00 0.00 0.00 83 1009.9
20260506073147 17 182 6.4 17.7 0.00 0.00 0.00 78 1010.0
20260506071645 17 221 14.5 16.1 0.00 0.00 0.00 77 1009.9
20260506070142 17 184 17.7 17.7 0.00 0.00 0.00 77 1010.0
20260506061632 16 177 8.0 8.0 0.00 0.00 0.00 79 1009.8
20260506060131 14 152 6.4 6.4 0.00 0.00 0.00 80 1010.1
20260506050121 16 139 6.4 6.4 0.00 0.00 0.00 74 1010.5
20260506044619 17 188 4.8 8.0 0.00 0.00 0.00 71 1010.3
20260506043117 18 201 6.4 16.1 0.00 0.00 0.00 68 1010.3
20260506041611 18 178 8.0 9.7 0.00 0.00 0.00 67 1010.3
20260506040108 19 184 12.9 14.5 0.00 0.00 0.00 67 1010.1
20260506034605 19 190 9.7 17.7 0.00 0.00 0.00 67 1010.4
20260506033101 19 218 6.4 20.9 0.00 0.00 0.00 66 1010.4
20260506031559 19 168 6.4 11.3 0.00 0.00 0.00 65 1010.2
20260506030057 19 246 12.9 17.7 0.00 0.00 0.00 64 1010.2
20260506024553 19 239 3.2 9.7 0.00 0.00 0.00 64 1010.2
20260506023049 19 198 4.8 17.7 0.00 0.00 0.00 63 1010.3
20260506021547 18 227 9.7 11.3 0.00 0.00 0.00 64 1010.2
20260506020044 17 250 3.2 8.0 0.00 0.00 0.00 67 1010.1
20260506014542 16 121 6.4 8.0 0.00 0.00 0.00 70 1010.2
20260506013038 18 179 6.4 20.9 0.00 0.00 0.00 66 1010.0
20260506011535 18 169 9.7 16.1 0.00 0.00 0.00 65 1009.9
20260506010032 16 111 6.4 9.7 0.00 0.00 0.00 71 1009.7
20260506004528 17 128 3.2 9.7 0.00 0.00 0.00 69 1009.4
20260506003023 17 145 6.4 11.3 0.00 0.00 0.00 68 1009.4
20260506001524 16 145 4.8 11.3 0.00 0.00 0.00 69 1009.1
20260506000022 16 176 8.0 9.7 0.00 0.00 0.00 71 1009.2
20260505234519 18 183 3.2 12.9 0.00 0.00 0.00 65 1008.7
20260505233016 18 224 3.2 11.3 0.00 0.00 0.00 65 1008.5
20260505231514 19 158 6.4 6.4 0.00 0.00 0.00 63 1008.1
20260505230012 18 168 4.8 8.0 0.00 0.00 0.00 65 1008.0
20260505224507 18 177 4.8 8.0 0.00 0.00 0.00 68 1008.0
20260505223004 18 246 3.2 12.9 0.00 0.00 0.00 67 1007.9
20260505221459 18 143 4.8 9.7 0.00 0.00 0.00 66 1007.5
20260505215956 21 133 9.7 16.1 0.00 0.00 0.00 60 1007.6
20260505214455 21 189 3.2 14.5 0.00 0.00 0.00 60 1007.5
20260505212952 20 161 8.0 14.5 0.00 0.00 0.00 61 1007.7
20260505211448 20 119 3.2 19.3 0.00 0.00 0.00 61 1007.7
20260505205944 21 192 6.4 17.7 0.00 0.00 0.00 55 1007.3
20260505204443 21 128 6.4 22.5 0.00 0.00 0.00 55 1007.4
20260505202938 20 139 9.7 14.5 0.00 0.00 0.00 61 1007.5
20260505201434 20 161 8.0 20.9 0.00 0.00 0.00 59 1007.7
20260505195930 21 145 9.7 16.1 0.00 0.00 0.00 59 1007.8
20260505194428 19 165 6.4 16.1 0.00 0.00 0.00 64 1008.0
20260505192923 19 183 6.4 17.7 0.00 0.00 0.00 65 1008.2
20260505191423 18 190 4.8 16.1 0.00 0.00 0.00 68 1008.3
20260505185922 18 122 9.7 19.3 0.00 0.00 0.00 65 1008.7
20260505184419 19 168 20.9 25.7 0.00 0.00 0.00 64 1009.3
20260505182915 18 169 4.8 22.5 0.00 0.00 0.00 66 1009.3
20260505181412 19 158 16.1 19.3 0.00 0.00 0.00 65 1009.4
20260505175907 18 140 9.7 17.7 0.00 0.00 0.00 66 1009.6
20260505174404 18 136 4.8 16.1 0.00 0.00 0.00 65 1009.5
20260505172859 18 128 9.7 20.9 0.00 0.00 0.00 67 1009.7
20260505171359 19 124 6.4 12.9 0.00 0.00 0.00 63 1010.0
20260505165854 19 165 6.4 9.7 0.00 0.00 0.00 63 1009.9
20260505164354 19 128 6.4 14.5 0.00 0.00 0.00 64 1010.2
20260505162849 20 156 4.8 8.0 0.00 0.00 0.00 59 1010.3